Location: Cheching
(60.0667°N, 164.2167°W)
Time: 19:51:04
(UTC+00:00)

EO-79 - Visible Passes

Search period start: 26 June 2022 00:00
Search period end: 06 July 2022 00:00
Orbit: 587 x 605 km, 98.0° (Epoch: 26 June)

Date Brightness Start Highest point End Pass type
(mag) Time Alt. Az. Time Alt. Az. Time Alt. Az.
26 Jun ? 11:24:03 10° NE 11:26:24 14° E 11:28:45 10° ESE visible
27 Jun ? 11:33:39 10° NE 11:36:27 17° E 11:39:16 10° SE visible
28 Jun ? 11:43:20 10° NE 11:46:30 20° E 11:49:39 10° SE visible
04 Jul ? 11:08:43 10° ENE 11:09:48 11° E 11:10:53 10° E visible
05 Jul ? 11:17:52 10° NE 11:19:51 13° E 11:21:49 10° ESE visible
